When you browse on this site, cookies collect data to enhance your experience and personalize the content and advertising you see.
Visit our Privacy Policy to learn more. By continuing to use the site, you agree to this use of cookies and data.
  • In Deutschland
  • Länderverzeichnis
  • Für 7 Tage
  • Wassertemperatur
  • Wetterkarte
  • Widgets
  • user-avatar
    Anmelden

    Stündliche Wetter Elizavetinskoe

    Heute, 22 Oktober, Dienstag

    Zeit Temperatur Niederschläge Wind Luftdruck Luftfeuchtigkeit
    00:00 +2°C° 0.1 mm 5 m/S 736 mmHg 95%
    01:00 +2°C° 0.1 mm 6 m/S 735 mmHg 95%
    02:00 +3°C° 0.3 mm 6 m/S 734 mmHg 93%
    03:00 +3°C° 0.3 mm 7 m/S 733 mmHg 92%
    04:00 +4°C° 0 mm 7 m/S 732 mmHg 88%
    05:00 +4°C° 0.9 mm 7 m/S 732 mmHg 89%
    06:00 +4°C° 0.9 mm 7 m/S 731 mmHg 90%
    07:00 +5°C° 0.9 mm 6 m/S 730 mmHg 91%
    08:00 +4°C° 0.2 mm 6 m/S 731 mmHg 88%
    09:00 +4°C° 0.2 mm 6 m/S 731 mmHg 86%
    10:00 +4°C° 0.2 mm 6 m/S 731 mmHg 84%
    11:00 +3°C° 0 mm 6 m/S 731 mmHg 82%
    12:00 +3°C° 0 mm 6 m/S 732 mmHg 81%
    13:00 +2°C° 0 mm 5 m/S 732 mmHg 79%
    14:00 +1°C° 0 mm 5 m/S 733 mmHg 80%
    15:00 +1°C° 0 mm 5 m/S 733 mmHg 82%
    16:00 0°C° 0 mm 4 m/S 734 mmHg 83%
    17:00 0°C° 0 mm 4 m/S 734 mmHg 85%
    18:00 0°C° 0 mm 4 m/S 735 mmHg 87%
    19:00 -1°C° 0 mm 5 m/S 735 mmHg 89%
    20:00 -1°C° 0 mm 4 m/S 735 mmHg 88%
    21:00 -2°C° 0 mm 4 m/S 735 mmHg 87%
    22:00 -3°C° 0 mm 4 m/S 735 mmHg 87%
    23:00 -3°C° 0 mm 4 m/S 735 mmHg 87%

    Morgen, 23 Oktober, Mittwoch

    Zeit Temperatur Niederschläge Wind Luftdruck Luftfeuchtigkeit
    00:00 -3°C° 0 mm 4 m/S 735 mmHg 86%
    01:00 -4°C° 0 mm 4 m/S 735 mmHg 86%
    02:00 -4°C° 0 mm 3 m/S 736 mmHg 86%
    03:00 -4°C° 0 mm 3 m/S 736 mmHg 87%
    04:00 -4°C° 0 mm 3 m/S 736 mmHg 88%
    05:00 -5°C° 0 mm 3 m/S 736 mmHg 87%
    06:00 -5°C° 0 mm 3 m/S 736 mmHg 87%
    07:00 -5°C° 0 mm 3 m/S 736 mmHg 87%
    08:00 -4°C° 0 mm 4 m/S 735 mmHg 84%
    09:00 -3°C° 0 mm 4 m/S 735 mmHg 81%
    10:00 -3°C° 0 mm 4 m/S 735 mmHg 78%
    11:00 -2°C° 0 mm 5 m/S 734 mmHg 77%
    12:00 -1°C° 0 mm 5 m/S 734 mmHg 76%
    13:00 0°C° 0 mm 5 m/S 733 mmHg 75%
    14:00 -1°C° 0 mm 6 m/S 733 mmHg 78%
    15:00 -1°C° 0 mm 6 m/S 732 mmHg 81%
    16:00 -1°C° 0 mm 6 m/S 732 mmHg 84%
    17:00 +1°C° 0.2 mm 6 m/S 731 mmHg 86%
    18:00 +1°C° 0.2 mm 6 m/S 730 mmHg 87%
    19:00 +2°C° 0.2 mm 7 m/S 730 mmHg 88%
    20:00 +3°C° 0.1 mm 7 m/S 729 mmHg 88%
    21:00 +3°C° 0.1 mm 7 m/S 728 mmHg 88%
    22:00 +3°C° 0.1 mm 7 m/S 728 mmHg 88%
    23:00 +4°C° 0.2 mm 6 m/S 728 mmHg 89%

    übermorgen, 24 Oktober, Donnerstag

    Zeit Temperatur Niederschläge Wind Luftdruck Luftfeuchtigkeit
    00:00 +4°C° 0.2 mm 6 m/S 728 mmHg 89%
    01:00 +5°C° 0.2 mm 5 m/S 728 mmHg 90%
    02:00 +3°C° 0.2 mm 5 m/S 729 mmHg 89%
    03:00 +2°C° 0.2 mm 5 m/S 729 mmHg 88%
    04:00 +1°C° 0.2 mm 4 m/S 730 mmHg 87%
    05:00 +1°C° 0 mm 4 m/S 731 mmHg 88%
    06:00 0°C° 0 mm 4 m/S 731 mmHg 89%
    07:00 0°C° 0 mm 4 m/S 732 mmHg 90%
    08:00 0°C° 0 mm 4 m/S 733 mmHg 88%
    09:00 0°C° 0 mm 4 m/S 733 mmHg 85%
    10:00 +1°C° 0 mm 4 m/S 734 mmHg 82%
    11:00 +1°C° 0 mm 4 m/S 734 mmHg 81%
    12:00 +1°C° 0 mm 4 m/S 734 mmHg 81%
    13:00 +1°C° 0 mm 4 m/S 735 mmHg 80%
    14:00 +1°C° 0 mm 4 m/S 735 mmHg 81%
    15:00 +1°C° 0 mm 4 m/S 735 mmHg 83%
    16:00 +1°C° 0 mm 3 m/S 735 mmHg 84%
    17:00 +1°C° 0 mm 3 m/S 736 mmHg 87%
    18:00 0°C° 0 mm 3 m/S 736 mmHg 89%
    19:00 0°C° 0 mm 3 m/S 736 mmHg 92%
    20:00 -1°C° 0 mm 3 m/S 737 mmHg 93%
    21:00 -1°C° 0 mm 3 m/S 737 mmHg 93%
    22:00 -1°C° 0 mm 3 m/S 737 mmHg 93%
    23:00 -1°C° 0 mm 3 m/S 737 mmHg 91%

    25 Oktober, Freitag

    Zeit Temperatur Niederschläge Wind Luftdruck Luftfeuchtigkeit
    00:00 -1°C° 0 mm 3 m/S 737 mmHg 89%
    01:00 -1°C° 0 mm 3 m/S 737 mmHg 87%
    02:00 -2°C° 0 mm 4 m/S 737 mmHg 88%
    03:00 -1°C° 0 mm 4 m/S 737 mmHg 89%
    04:00 -1°C° 0 mm 4 m/S 737 mmHg 90%
    05:00 -1°C° 0 mm 4 m/S 737 mmHg 91%
    06:00 0°C° 0 mm 3 m/S 737 mmHg 91%
    07:00 0°C° 0 mm 3 m/S 737 mmHg 92%
    08:00 0°C° 0 mm 3 m/S 737 mmHg 92%
    09:00 0°C° 0 mm 3 m/S 737 mmHg 93%
    10:00 +1°C° 0 mm 3 m/S 737 mmHg 93%
    11:00 0°C° 0 mm 4 m/S 737 mmHg 94%
    12:00 0°C° 0 mm 4 m/S 737 mmHg 94%
    13:00 0°C° 0 mm 5 m/S 737 mmHg 94%
    14:00 0°C° 0 mm 4 m/S 737 mmHg 94%
    15:00 0°C° 0 mm 4 m/S 737 mmHg 94%
    16:00 +1°C° 0 mm 4 m/S 737 mmHg 94%
    17:00 +1°C° 0.1 mm 4 m/S 737 mmHg 94%
    18:00 +1°C° 0.1 mm 4 m/S 737 mmHg 93%
    19:00 +3°C° 0.1 mm 4 m/S 737 mmHg 93%
    20:00 +3°C° 0 mm 4 m/S 737 mmHg 92%
    21:00 +3°C° 0 mm 4 m/S 737 mmHg 92%
    22:00 +3°C° 0 mm 4 m/S 737 mmHg 91%
    23:00 +3°C° 0 mm 4 m/S 737 mmHg 91%

    26 Oktober, Samstag

    Zeit Temperatur Niederschläge Wind Luftdruck Luftfeuchtigkeit
    00:00 +3°C° 0 mm 4 m/S 738 mmHg 91%
    01:00 +3°C° 0 mm 4 m/S 738 mmHg 91%
    02:00 +3°C° 0 mm 4 m/S 738 mmHg 92%
    03:00 +3°C° 0 mm 3 m/S 739 mmHg 92%
    04:00 +3°C° 0 mm 3 m/S 739 mmHg 93%
    05:00 +3°C° 0 mm 2 m/S 740 mmHg 94%
    06:00 +3°C° 0 mm 2 m/S 740 mmHg 95%
    07:00 +3°C° 0 mm 2 m/S 740 mmHg 96%
    08:00 +4°C° 0 mm 2 m/S 740 mmHg 95%
    09:00 +4°C° 0 mm 2 m/S 740 mmHg 94%
    10:00 +3°C° 0 mm 3 m/S 740 mmHg 94%
    11:00 +4°C° 0 mm 3 m/S 740 mmHg 91%
    12:00 +4°C° 0 mm 4 m/S 740 mmHg 88%
    13:00 +4°C° 0 mm 4 m/S 739 mmHg 86%
    14:00 +4°C° 0 mm 4 m/S 739 mmHg 85%
    15:00 +4°C° 0 mm 4 m/S 738 mmHg 84%
    16:00 +5°C° 0 mm 5 m/S 738 mmHg 83%
    17:00 +5°C° 0 mm 5 m/S 738 mmHg 84%
    18:00 +4°C° 0 mm 6 m/S 737 mmHg 84%
    19:00 +5°C° 0 mm 6 m/S 737 mmHg 84%
    20:00 +5°C° 0 mm 6 m/S 736 mmHg 86%
    21:00 +7°C° 0 mm 6 m/S 736 mmHg 87%
    22:00 +7°C° 0 mm 6 m/S 735 mmHg 88%
    23:00 +7°C° 0.1 mm 6 m/S 735 mmHg 88%

    27 Oktober, Sonntag

    Zeit Temperatur Niederschläge Wind Luftdruck Luftfeuchtigkeit
    00:00 +7°C° 0.1 mm 5 m/S 735 mmHg 87%
    01:00 +8°C° 0.1 mm 5 m/S 734 mmHg 87%
    02:00 +7°C° 0 mm 6 m/S 734 mmHg 86%
    03:00 +7°C° 0 mm 6 m/S 734 mmHg 86%
    04:00 +7°C° 0 mm 6 m/S 734 mmHg 86%
    05:00 +7°C° 0 mm 6 m/S 734 mmHg 86%
    06:00 +7°C° 0 mm 6 m/S 734 mmHg 86%
    07:00 +7°C° 0 mm 6 m/S 733 mmHg 85%
    08:00 +7°C° 0 mm 6 m/S 733 mmHg 84%
    09:00 +7°C° 0 mm 6 m/S 733 mmHg 82%
    10:00 +8°C° 0 mm 6 m/S 733 mmHg 80%
    11:00 +8°C° 0 mm 7 m/S 732 mmHg 75%
    12:00 +9°C° 0 mm 7 m/S 732 mmHg 69%
    13:00 +10°C° 0 mm 7 m/S 731 mmHg 64%
    14:00 +10°C° 0 mm 7 m/S 731 mmHg 66%
    15:00 +10°C° 0 mm 7 m/S 730 mmHg 68%
    16:00 +9°C° 0 mm 7 m/S 730 mmHg 70%
    17:00 +9°C° 0 mm 7 m/S 730 mmHg 70%
    18:00 +9°C° 0 mm 7 m/S 729 mmHg 71%
    19:00 +8°C° 0 mm 7 m/S 729 mmHg 72%
    20:00 +8°C° 0 mm 7 m/S 729 mmHg 73%
    21:00 +8°C° 0 mm 7 m/S 728 mmHg 74%
    22:00 +8°C° 0 mm 7 m/S 728 mmHg 76%
    23:00 +8°C° 0.2 mm 7 m/S 728 mmHg 77%

    28 Oktober, Montag

    Zeit Temperatur Niederschläge Wind Luftdruck Luftfeuchtigkeit
    00:00 +7°C° 0.2 mm 8 m/S 727 mmHg 79%
    01:00 +7°C° 0.2 mm 8 m/S 727 mmHg 80%
    02:00 +7°C° 0.6 mm 8 m/S 727 mmHg 81%
    03:00 +8°C° 0.6 mm 7 m/S 726 mmHg 83%
    04:00 +8°C° 0.6 mm 7 m/S 726 mmHg 84%
    05:00 +8°C° 0.8 mm 7 m/S 726 mmHg 85%
    06:00 +6°C° 0.8 mm 7 m/S 725 mmHg 85%
    07:00 +6°C° 0.8 mm 7 m/S 725 mmHg 86%
    08:00 +7°C° 0.7 mm 6 m/S 725 mmHg 87%
    09:00 +6°C° 0.7 mm 5 m/S 725 mmHg 88%
    10:00 +6°C° 0.7 mm 5 m/S 725 mmHg 89%
    11:00 +5°C° 0.7 mm 4 m/S 725 mmHg 90%
    12:00 +5°C° 0.7 mm 4 m/S 725 mmHg 91%
    13:00 +4°C° 0.7 mm 3 m/S 725 mmHg 91%
    14:00 +3°C° 0.6 mm 3 m/S 724 mmHg 92%
    15:00 +3°C° 0.6 mm 3 m/S 724 mmHg 93%
    16:00 +2°C° 0.6 mm 3 m/S 724 mmHg 94%
    17:00 +2°C° 0.2 mm 3 m/S 724 mmHg 93%
    18:00 +3°C° 0.2 mm 2 m/S 724 mmHg 93%
    19:00 +3°C° 0.2 mm 2 m/S 724 mmHg 92%
    20:00 +3°C° 0 mm 2 m/S 724 mmHg 91%
    21:00 +3°C° 0 mm 2 m/S 724 mmHg 90%
    22:00 +3°C° 0 mm 2 m/S 724 mmHg 89%
    23:00 +2°C° 0 mm 2 m/S 724 mmHg 91%
    Mehr zeigen